Content
SEND FEEDBACK

Daily
Averages
Monthly
Summary
United States of America

BERKELEY - UNIVERSITY OF CALIFORNIA, CALIFORNIA


Home > North America > United States > California
Elevation: 1750 feet     Latitude: 37 52N     Longitude: 122 13W

WEATHER
 
SELECT A DAY
Number of Records: 187,495;   Date Range: 1/1/95 - 11/26/14
 
SHARE

PRINT THIS DATA

[ ← Previous Day ]
WEATHER ALMANAC - FEBRUARY 13, 2013
[ Next Day → ]
[ °C ]   °F
Weather ElementAverageHighLow
Temperature49.3 °F60.1 °F (2:53 pm)42.1 °F (1:53 am)
Dewpoint47.7 °F52 °F (1:53 pm)42.1 °F (1:53 am)
Humidity94.9 %100 % (1:53 am)60 % (12:53 pm)
Barometer30.32 in30.37 in (9:53 am)30.24 in (5:53 pm)
Wind Speed3 mph8.1 mph (4:53 pm)
Weather ElementAverage
Visibility5.6 mi
Wind DirectionESE (122.2 °)

Weather ElementTotal
Precipitation---
Heating Degree Days13.9 (Base 65)
Growing Degree Days1.1 (Base 50)
Averaged from 37 records on February 13, 2013
WEATHER CONDITIONS BREAKOUT
WIND DIRECTION BREAKOUT
WEATHER BY HOUR - FEBRUARY 13, 2013
[ °C ]   °F
Local TimeTemperatureDewpointHumidityBarometerVisibilityWind DirectionWind SpeedGust SpeedPrecipitationEventsConditions
1:53 AM42.1 °F42.1 °F100 %30.35 in10.0 miCalmClear
2:53 AM43.0 °F43.0 °F100 %30.35 in10.0 miNE (50°)3.5 mphPartly Cloudy
3:53 AM43.0 °F43.0 °F100 %30.34 in10.0 miCalmPartly Cloudy
4:53 AM42.1 °F42.1 °F100 %30.34 in8.0 miNE (50°)3.5 mphPartly Cloudy
4:57 AM42.8 °F42.8 °F100 %30.34 in8.0 miENE (60°)3.5 mphPartly Cloudy
5:31 AM42.8 °F42.8 °F100 %30.34 in8.0 miENE (60°)3.5 mphMostly Cloudy
5:53 AM43.0 °F43.0 °F100 %30.34 in8.0 miCalmOvercast
6:53 AM46.0 °F46.0 °F100 %30.34 in3.0 miCalmOvercast
6:57 AM46.4 °F46.4 °F100 %30.34 in2.5 miCalmOvercast
7:24 AM44.6 °F44.6 °F100 %30.35 in1.0 miCalmOvercast
7:53 AM46.0 °F46.0 °F100 %30.36 in1.0 miCalmOvercast
8:00 AM44.6 °F44.6 °F100 %30.36 in1.0 miCalmOvercast
8:18 AM48.2 °F46.4 °F93 %30.36 in0.8 miCalmOvercast
8:41 AM48.2 °F48.2 °F100 %30.36 in0.5 miCalmFogFog
8:53 AM48.0 °F48.0 °F100 %30.36 in0.5 miCalmFogFog
9:37 AM48.2 °F48.2 °F100 %30.36 in1.0 miCalmOvercast
9:53 AM48.9 °F48.9 °F100 %30.37 in1.0 miVariable6.9 mphOvercast
10:53 AM50.0 °F50.0 °F100 %30.37 in1.0 miWest (260°)4.6 mphOvercast
11:06 AM50.0 °F50.0 °F100 %30.37 in2.0 miWest (260°)5.8 mphMostly Cloudy
11:18 AM51.8 °F51.8 °F100 %30.36 in3.0 miWNW (300°)5.8 mphScattered Clouds
11:31 AM51.8 °F51.8 °F100 %30.35 in2.0 miWest (270°)5.8 mphMostly Cloudy
11:40 AM51.8 °F51.8 °F100 %30.35 in2.0 miWest (280°)5.8 mphPartly Cloudy
11:53 AM53.1 °F51.1 °F93 %30.34 in2.0 miVariable4.6 mphPartly Cloudy
12:28 PM55.4 °F48.2 °F77 %30.32 in5.0 miCalmHaze
12:53 PM57.9 °F44.1 °F60 %30.31 in6.0 miWest (270°)4.6 mphHaze
1:53 PM59.0 °F52.0 °F78 %30.28 in7.0 miWest (270°)5.8 mphClear
2:53 PM60.1 °F50.0 °F69 %30.27 in8.0 miWest (270°)5.8 mphClear
3:53 PM60.1 °F52.0 °F75 %30.26 in10.0 miWNW (300°)5.8 mphPartly Cloudy
4:53 PM57.9 °F48.9 °F72 %30.25 in10.0 miNW (310°)8.1 mphPartly Cloudy
5:53 PM53.1 °F51.1 °F93 %30.24 in10.0 miWNW (290°)6.9 mphPartly Cloudy
6:53 PM52.0 °F52.0 °F100 %30.25 in10.0 miWNW (290°)5.8 mphPartly Cloudy
7:53 PM51.1 °F51.1 °F100 %30.25 in10.0 miWNW (300°)8.1 mphPartly Cloudy
8:53 PM51.1 °F51.1 °F100 %30.25 in10.0 miNNW (330°)3.5 mphPartly Cloudy
9:53 PM48.9 °F48.9 °F100 %30.25 in10.0 miWNW (300°)3.5 mphPartly Cloudy
10:53 PM48.0 °F48.0 °F100 %30.25 in10.0 miCalmFogShallow Fog
11:48 PM46.4 °F46.4 °F100 %30.25 in8.0 miCalmFogShallow Fog
11:53 PM46.9 °F46.9 °F100 %30.25 in8.0 miCalmPartly Cloudy
Hourly data recorded from KOAK, located miles away from Berkeley - University of California, California







STORIES FROM OUR PARTNERS